Confins, Brazil

7:28 AM -02 on November 20, 2017 (GMT -0200)
Tancredo Neves International | | Change Station

Elev 2713 ft 19.63 °S, 43.97 °W | Updated 28 minutes ago

Patches of Fog
Patches Fog Mist
68 °F
Feels Like 68 °F
N
4
Wind Variable Wind from East

Today
High -- | Low -- °F
--% Chance of Precip.
Yesterday
High -- | Low -- °F
Precip. -- in
Pressure 29.98 in
Visibility 1.0 miles
Clouds Scattered Clouds 3500 ft
Mostly Cloudy 7000 ft
Dew Point 66 °F
Humidity 94%
Rainfall 0.00 in
Snow Depth Not available.
6:08 AM 7:15 PM
Waxing Crescent, 3% visible
METAR SBCF 200900Z 08003KT 1600 R16/P2000D R34/P2000D BCFG BR BKN 004 SCT035 BKN070 20/19 Q1015
Pressure 29.98 in
Visibility 1.0 miles
Clouds Scattered Clouds 3500 ft
Mostly Cloudy 7000 ft
Dew Point 66 °F
Humidity 94%
Rainfall 0.00 in
Snow Depth Not available.
6:08 AM 7:15 PM
Waxing Crescent, 3% visible
METAR SBCF 200900Z 08003KT 1600 R16/P2000D R34/P2000D BCFG BR BKN 004 SCT035 BKN070 20/19 Q1015

Get Severe Weather Alerts

Thanks for signing up!

Be on the lookout for a verification email in your inbox.

You'll start receiving the daily forecast at 6 AM.

×

10-Day Weather Forecast

No radar image for this location.
×

Almanac

Astronomy

Nov. 20, 2017 Rise Set
Actual Time
Civil Twilight
Nautical Twilight
Astronomical Twilight
Moon
Length of Visible Light
Length of Day
Tomorrow will be .
, % of the Moon is Illuminated

Today's Extremes

Country Highs Country Lows

Community

WunderPhotos

Category 6

Welcome to Category 6. This is the collective home for Weather Underground's featured writeups by Dr. Jeff Masters (right), Bob Henson (left), Chris Burt, and other regular contributors.

Nearby

Air Quality

  Air Quality AQ Index Pollutant
Not available.

Snow Depth

Station Depth Elevation

Earthquake Activity

City Distance Mag. Time & Date
Minimum magnitude displayed is 2.5.

Coastal Water Temperatures

Place Temperature

Stations

Nearby Weather Stations

Station Location Temp. Windchill Dew Point Humidity Wind Precip. Elev Updated Type